TimeEDT,TemperatureF,Dew PointF,Humidity,Sea Level PressureIn,VisibilityMPH,Wind Direction,Wind SpeedMPH,Gust SpeedMPH,PrecipitationIn,Events,Conditions,WindDirDegrees,DateUTC
12:15 AM,77.0,75.2,94,30.02,7.0,SSE,6.9,-,0.01,Rain,Light Rain,160,2012-10-03 04:15:00
12:35 AM,77.0,75.2,94,30.01,7.0,South,6.9,-,0.02,Rain,Light Rain,180,2012-10-03 04:35:00
12:55 AM,77.0,75.2,94,30.01,5.0,South,8.1,-,0.03,Rain,Light Rain,170,2012-10-03 04:55:00
1:15 AM,77.0,75.2,94,30.00,8.0,South,5.8,-,N/A,Rain,Light Rain,180,2012-10-03 05:15:00
1:35 AM,77.0,75.2,94,30.00,7.0,South,4.6,-,0.01,Rain,Light Rain,180,2012-10-03 05:35:00
1:55 AM,75.2,75.2,100,30.01,7.0,South,4.6,-,0.01,Rain,Light Rain,170,2012-10-03 05:55:00
2:15 AM,75.2,75.2,100,30.01,7.0,SSE,4.6,-,N/A,Rain,Light Rain,160,2012-10-03 06:15:00
2:35 AM,77.0,75.2,94,30.01,7.0,South,5.8,-,N/A,Rain,Light Rain,170,2012-10-03 06:35:00
2:55 AM,78.8,75.2,89,30.01,10.0,South,5.8,-,0.01,Rain,Light Rain,190,2012-10-03 06:55:00
3:15 AM,78.8,77.0,94,30.01,9.0,South,4.6,-,N/A,Rain,Light Rain,190,2012-10-03 07:15:00
3:35 AM,78.8,75.2,89,30.01,8.0,South,8.1,-,N/A,,Scattered Clouds,190,2012-10-03 07:35:00
3:55 AM,78.8,75.2,89,30.01,8.0,South,6.9,-,0.01,Rain,Light Rain,180,2012-10-03 07:55:00
4:15 AM,78.8,75.2,89,30.01,8.0,South,5.8,-,N/A,,Clear,190,2012-10-03 08:15:00
4:35 AM,78.8,75.2,89,30.01,8.0,South,5.8,-,N/A,,Clear,180,2012-10-03 08:35:00
4:55 AM,78.8,75.2,89,30.01,8.0,SSW,5.8,-,N/A,,Clear,200,2012-10-03 08:55:00
5:15 AM,78.8,75.2,89,30.02,8.0,SW,5.8,-,N/A,,Clear,220,2012-10-03 09:15:00
5:35 AM,78.8,75.2,89,30.03,8.0,SSW,5.8,-,N/A,Rain,Light Rain,210,2012-10-03 09:35:00
5:55 AM,78.8,75.2,89,30.04,8.0,SSW,4.6,-,N/A,,Clear,210,2012-10-03 09:55:00
6:15 AM,78.8,75.2,89,30.04,7.0,WSW,4.6,-,N/A,Rain,Light Rain,240,2012-10-03 10:15:00
6:35 AM,78.8,75.2,89,30.05,9.0,WSW,5.8,-,N/A,,Clear,250,2012-10-03 10:35:00
6:55 AM,78.8,73.4,83,30.06,10.0,WSW,4.6,-,N/A,,Partly Cloudy,250,2012-10-03 10:55:00
7:15 AM,77.0,71.6,83,30.06,10.0,WSW,4.6,-,N/A,,Clear,250,2012-10-03 11:15:00
7:35 AM,75.2,71.6,89,30.07,9.0,SW,3.5,-,N/A,,Clear,230,2012-10-03 11:35:00
7:55 AM,75.2,71.6,89,30.08,9.0,Calm,Calm,-,N/A,,Partly Cloudy,0,2012-10-03 11:55:00
8:15 AM,75.2,71.6,89,30.08,9.0,Calm,Calm,-,N/A,,Partly Cloudy,0,2012-10-03 12:15:00
8:35 AM,73.4,71.6,94,30.09,8.0,Calm,Calm,-,N/A,,Clear,0,2012-10-03 12:35:00
8:55 AM,75.2,73.4,94,30.09,8.0,Calm,Calm,-,N/A,,Clear,0,2012-10-03 12:55:00
9:15 AM,77.0,73.4,89,30.10,9.0,Calm,Calm,-,N/A,,Clear,0,2012-10-03 13:15:00
9:35 AM,78.8,71.6,78,30.11,9.0,South,3.5,-,N/A,,Partly Cloudy,190,2012-10-03 13:35:00
9:55 AM,78.8,71.6,78,30.12,10.0,South,3.5,-,N/A,,Mostly Cloudy,170,2012-10-03 13:55:00
10:15 AM,80.6,69.8,70,30.12,10.0,SW,4.6,-,N/A,,Mostly Cloudy,220,2012-10-03 14:15:00
10:35 AM,80.6,69.8,70,30.12,10.0,SSW,3.5,-,N/A,,Partly Cloudy,210,2012-10-03 14:35:00
10:55 AM,80.6,69.8,70,30.12,10.0,SSW,6.9,-,N/A,,Clear,210,2012-10-03 14:55:00
11:15 AM,80.6,68.0,65,30.13,10.0,SSW,3.5,-,N/A,,Scattered Clouds,200,2012-10-03 15:15:00
11:35 AM,80.6,69.8,70,30.13,9.0,SSW,3.5,-,N/A,,Partly Cloudy,210,2012-10-03 15:35:00
11:55 AM,82.4,68.0,62,30.13,10.0,South,8.1,-,N/A,,Scattered Clouds,190,2012-10-03 15:55:00
12:15 PM,82.4,66.2,58,30.13,10.0,SSW,5.8,-,N/A,,Scattered Clouds,200,2012-10-03 16:15:00
12:35 PM,82.4,66.2,58,30.13,10.0,SW,4.6,-,N/A,Rain,Light Rain,230,2012-10-03 16:35:00
12:55 PM,84.2,66.2,55,30.13,10.0,WSW,5.8,-,N/A,,Clear,240,2012-10-03 16:55:00
1:15 PM,84.2,66.2,55,30.12,10.0,WSW,4.6,-,N/A,,Clear,240,2012-10-03 17:15:00
1:35 PM,84.2,66.2,55,30.12,10.0,South,6.9,-,N/A,,Clear,190,2012-10-03 17:35:00
1:55 PM,84.2,66.2,55,30.11,10.0,SW,6.9,-,N/A,,Light Drizzle,230,2012-10-03 17:55:00
2:15 PM,84.2,62.6,48,30.11,10.0,SW,6.9,-,N/A,,Light Drizzle,220,2012-10-03 18:15:00
2:35 PM,84.2,62.6,48,30.11,10.0,WSW,5.8,-,N/A,,Clear,250,2012-10-03 18:35:00
2:55 PM,84.2,62.6,48,30.11,10.0,SW,8.1,-,N/A,,Partly Cloudy,220,2012-10-03 18:55:00
3:15 PM,84.2,62.6,48,30.10,10.0,SW,5.8,-,N/A,,Light Drizzle,230,2012-10-03 19:15:00
3:35 PM,84.2,64.4,51,30.10,10.0,SSW,4.6,-,N/A,,Light Drizzle,200,2012-10-03 19:35:00
3:55 PM,84.2,64.4,51,30.11,10.0,SSW,5.8,-,N/A,,Partly Cloudy,210,2012-10-03 19:55:00
4:15 PM,84.2,64.4,51,30.10,10.0,WSW,5.8,-,N/A,Rain,Light Rain,240,2012-10-03 20:15:00
4:35 PM,84.2,64.4,51,30.10,10.0,WSW,4.6,-,N/A,,Clear,240,2012-10-03 20:35:00
4:55 PM,82.4,66.2,58,30.11,10.0,SW,3.5,-,N/A,,Light Drizzle,220,2012-10-03 20:55:00
5:15 PM,82.4,66.2,58,30.11,10.0,SSW,3.5,-,N/A,,Partly Cloudy,210,2012-10-03 21:15:00
5:35 PM,80.6,71.6,74,30.12,10.0,South,3.5,-,N/A,,Partly Cloudy,170,2012-10-03 21:35:00
5:55 PM,80.6,73.4,79,30.12,10.0,South,5.8,-,N/A,,Partly Cloudy,180,2012-10-03 21:55:00
6:15 PM,80.6,71.6,74,30.12,10.0,South,5.8,-,N/A,,Partly Cloudy,190,2012-10-03 22:15:00
6:35 PM,78.8,71.6,78,30.13,9.0,South,6.9,-,N/A,,Partly Cloudy,190,2012-10-03 22:35:00
6:55 PM,78.8,71.6,78,30.13,10.0,South,3.5,-,N/A,,Mostly Cloudy,180,2012-10-03 22:55:00
7:15 PM,78.8,71.6,78,30.14,10.0,SSW,3.5,-,N/A,,Mostly Cloudy,200,2012-10-03 23:15:00
7:35 PM,78.8,71.6,78,30.14,10.0,South,4.6,-,N/A,,Mostly Cloudy,190,2012-10-03 23:35:00
7:55 PM,77.0,71.6,83,30.15,10.0,South,4.6,-,N/A,,Mostly Cloudy,170,2012-10-03 23:55:00
8:15 PM,78.8,71.6,78,30.15,10.0,SSW,3.5,-,N/A,,Overcast,210,2012-10-04 00:15:00
8:35 PM,77.0,71.6,83,30.17,10.0,South,4.6,-,N/A,,Mostly Cloudy,180,2012-10-04 00:35:00
8:55 PM,77.0,71.6,83,30.17,10.0,South,4.6,-,N/A,,Scattered Clouds,180,2012-10-04 00:55:00
9:15 PM,77.0,71.6,83,30.18,10.0,South,3.5,-,N/A,,Scattered Clouds,190,2012-10-04 01:15:00
9:35 PM,77.0,71.6,83,30.18,10.0,Calm,Calm,-,N/A,,Mostly Cloudy,0,2012-10-04 01:35:00
9:55 PM,77.0,71.6,83,30.19,10.0,Calm,Calm,-,N/A,,Mostly Cloudy,0,2012-10-04 01:55:00
10:15 PM,75.2,71.6,89,30.20,10.0,Calm,Calm,-,N/A,,Mostly Cloudy,0,2012-10-04 02:15:00
10:35 PM,75.2,71.6,89,30.20,10.0,Calm,Calm,-,N/A,,Mostly Cloudy,0,2012-10-04 02:35:00
10:55 PM,75.2,71.6,89,30.20,10.0,Calm,Calm,-,N/A,,Mostly Cloudy,0,2012-10-04 02:55:00
11:15 PM,75.2,71.6,89,30.20,10.0,Calm,Calm,-,N/A,,Mostly Cloudy,0,2012-10-04 03:15:00
11:35 PM,75.2,71.6,89,30.20,10.0,Calm,Calm,-,N/A,,Mostly Cloudy,0,2012-10-04 03:35:00
11:55 PM,75.2,71.6,89,30.20,7.0,Calm,Calm,-,N/A,Rain,Light Rain,0,2012-10-04 03:55:00